Presure
176 179 177 183 175 177 150 175 181 178 211 197 200 197 188 207 238 315 308 320 339 365 358 355 364 377 386 299 289 368 353 347 344 337 326 315 308 292 283 283 278 286 307 281
171 169 163 178 185 180 182 197 192 196 197 204 202 211 228 232 319 311 318 321 361 363 360 363 359 381 359 304 314 359 351 409 402 330 324 318 306 294 282 289 266 277 280 300
165 174 166 170 167 184 183 190 193 194 203 207 205 213 205 298 313 321 338 353 363 361 360 357 362 377 312 298 282 279 348 404 390 386 391 342 295 288 283 280 297 281 278 277
157 170 187 190 178 192 166 197 195 192 204 210 210 208 291 303 327 366 358 361 364 370 320 353 369 336 306 289 282 381 351 394 382 370 375 375 376 353 322 300 304 286 276 272
179 169 176 194 191 170 185 191 201 178 208 208 212 255 287 333 376 366 362 365 372 372 303 365 379 309 294 285 283 381 405 388 382 368 355 360 356 369 335 316 305 296 277 286
183 181 182 168 194 189 179 198 177 208 192 186 204 283 280 335 383 374 371 366 377 329 288 286 379 311 288 282 359 381 396 386 377 368 354 350 344 339 363 325 311 303 293 274
168 187 173 178 183 182 196 202 209 207 209 213 292 287 283 335 395 307 378 372 384 322 304 298 378 317 299 292 370 374 397 383 373 365 359 344 338 326 333 345 341 300 287 280
181 198 174 185 193 194 203 179 185 200 220 247 285 285 279 330 401 305 293 389 347 296 304 380 372 326 310 308 369 358 354 362 373 362 355 347 376 328 319 329 342 336 297 278
191 178 196 195 201 193 169 170 198 234 197 272 284 278 269 317 403 320 293 363 311 297 291 375 355 325 319 342 384 357 341 349 374 364 359 345 334 337 358 314 334 326 304 308
183 193 202 173 191 196 204 210 192 232 281 274 270 272 264 313 415 335 306 330 319 311 309 370 362 321 315 329 361 358 354 348 344 381 369 355 345 330 393 352 312 310 294 289
182 201 163 186 209 198 216 239 201 268 272 274 270 277 305 401 401 324 314 349 331 323 326 373 338 320 320 349 350 358 354 346 342 344 352 308 360 346 330 345 357 303 299 290
196 190 196 206 173 203 248 194 250 285 288 276 283 297 405 398 379 323 326 350 340 330 344 337 334 326 328 337 347 354 347 352 337 333 334 340 281 362 356 341 327 394 384 323
194 205 203 178 227 196 235 278 289 289 302 286 283 391 397 393 347 323 382 356 344 336 343 346 336 328 327 329 346 346 341 335 342 343 339 335 329 290 313 323 355 345 326 348
212 199 213 247 211 242 243 285 281 305 284 267 351 404 392 373 336 322 369 357 345 344 358 346 338 332 337 336 314 345 315 305 313 323 333 334 313 298 289 283 278 283 369 357
206 215 219 231 240 276 293 286 298 281 263 337 405 393 331 344 339 381 375 359 349 347 372 362 355 316 311 305 305 307 309 310 308 306 325 316 312 319 314 293 288 285 281 275
214 230 282 236 283 277 297 296 276 266 262 349 406 324 357 359 356 376 367 358 347 345 340 330 323 317 315 313 313 313 314 308 309 334 330 329 331 314 306 313 313 289 284 279
238 250 233 278 270 274 305 283 267 253 255 400 395 303 329 371 389 377 367 356 350 342 338 332 333 321 323 317 316 315 316 313 312 312 311 319 313 309 314 340 336 306 308 309
247 267 273 304 299 319 293 274 254 247 252 408 396 307 373 387 387 382 368 357 351 344 338 336 331 327 318 316 315 312 309 312 315 311 312 310 309 311 309 306 304 307 306 303
279 284 295 295 311 305 280 265 254 246 253 415 407 354 331 389 383 379 369 358 348 339 338 332 330 324 322 320 314 314 313 311 308 309 312 313 317 317 318 317 315 313 312 312
280 295 290 291 288 298 279 273 250 243 297 419 401 392 395 399 392 377 371 355 343 337 333 331 331 331 328 328 328 329 329 331 332 330 326 327 331 332 333 336 338 338 336 335
296 286 282 271 269 276 303 295 262 250 274 325 396 363 362 347 388 378 357 341 331 333 329 330 328 330 335 338 344 349 355 360 364 369 373 377 380 381 377 372 374 373 356 355
282 283 240 288 268 292 321 319 273 248 256 287 396 388 373 347 387 381 358 346 343 339 339 339 345 352 360 369 381 392 407 422 435 433 414 394 329 324 315 313 312 317 313 307
273 236 291 296 286 315 315 325 318 256 246 262 286 388 379 356 354 390 376 358 349 348 351 356 363 374 388 411 445 459 364 350 348 349 348 351 348 351 357 358 358 355 354 353
224 247 264 294 292 292 300 302 299 270 247 251 272 292 375 377 397 386 373 363 362 358 366 373 384 406 444 366 353 366 371 339 342 355 357 354 351 348 347 347 444 451 448 443
236 236 244 261 297 292 285 286 293 294 250 244 248 271 280 307 402 388 367 362 358 366 380 396 417 425 361 369 363 344 342 342 343 355 357 352 344 344 421 464 461 458 456 453
228 240 243 245 252 265 291 286 281 284 291 286 241 245 270 290 309 381 349 366 367 375 395 417 453 370 363 363 353 347 348 346 358 359 357 352 471 467 456 449 447 446 444 444
222 223 230 235 239 245 248 285 286 285 282 284 285 238 246 274 291 313 362 363 372 377 411 446 403 365 369 360 351 352 349 354 361 353 351 478 464 453 453 461 476 479 478 467
Wind_Speed
123 125 124 129 120 122 90 112 132 124 159 153 157 151 128 155 174 109 109 100 90 76 71 68 65 62 53 41 43 37 36 30 25 27 35 38 38 42 47 47 50 52 47 46
121 109 98 129 134 133 134 149 150 155 158 165 162 183 185 172 106 107 102 96 76 69 65 61 60 57 49 40 40 36 35 23 18 24 31 40 42 46 49 50 55 58 49 45
107 122 102 112 108 133 129 144 147 148 164 170 168 171 152 118 107 100 91 77 66 63 58 57 56 52 46 41 41 37 33 20 17 18 23 33 41 45 48 53 57 57 49 47
89 113 140 142 123 147 102 157 155 147 174 169 167 159 120 112 100 79 76 69 62 53 57 52 48 46 50 45 42 36 32 21 16 16 21 28 37 56 56 55 65 57 54 52
130 109 120 149 146 105 143 162 164 124 174 173 155 155 116 102 75 72 69 63 58 50 56 46 40 45 50 51 50 34 25 22 17 16 20 25 31 37 63 60 65 69 57 61
145 130 133 108 152 147 130 158 124 182 137 123 137 115 117 102 68 66 62 58 52 51 56 56 38 40 48 51 34 28 24 22 18 15 18 23 29 33 39 63 64 68 65 59
114 134 116 128 137 139 165 163 175 163 173 182 111 112 113 101 63 83 56 55 48 50 53 54 35 39 44 46 32 27 19 21 19 16 14 19 26 31 34 41 59 65 62 60
140 149 122 142 156 159 170 127 134 152 166 152 113 112 111 101 59 82 80 49 51 59 55 36 34 38 39 41 31 31 26 21 17 18 16 16 17 28 33 38 44 59 67 61
147 128 155 157 165 160 111 110 148 174 124 122 110 111 109 104 57 78 79 50 59 60 59 34 36 41 39 35 25 19 23 22 16 17 16 16 19 24 29 36 45 56 60 67
137 150 159 119 157 158 159 160 132 150 112 114 114 109 106 101 51 70 77 58 55 55 53 33 32 38 39 35 29 25 22 20 18 12 15 17 18 22 21 32 42 54 52 55
135 159 102 143 167 147 167 167 140 126 115 113 111 106 105 55 51 69 69 48 51 50 47 30 34 37 36 31 29 24 20 18 17 16 14 17 17 21 25 28 33 47 53 54
150 139 155 155 113 152 137 131 133 108 104 107 105 105 59 55 51 66 62 46 45 45 40 38 33 34 33 31 28 24 22 18 17 17 16 15 21 17 22 27 32 23 33 55
142 161 149 116 170 129 158 108 102 102 98 102 104 69 59 55 58 64 43 45 45 45 40 35 33 33 33 32 27 24 21 19 17 15 15 15 17 24 22 24 28 33 39 39
158 140 158 153 142 145 125 99 100 93 98 101 89 61 57 57 63 64 44 42 43 41 36 35 34 33 32 30 30 25 25 23 22 20 18 17 21 25 27 28 29 30 29 35
147 151 142 150 137 101 92 94 89 95 98 93 61 60 73 65 63 47 43 42 40 38 31 29 28 32 32 31 31 30 29 27 25 24 22 23 22 22 24 29 33 33 34 36
137 143 100 131 93 93 87 83 90 94 99 83 58 75 65 64 61 48 44 41 39 37 35 34 33 33 31 30 27 26 24 25 28 24 22 21 23 27 30 29 28 37 38 40
131 121 118 91 91 88 77 81 88 95 100 65 61 73 70 62 53 49 45 41 38 36 34 32 30 30 30 29 30 29 26 23 22 23 26 24 24 27 27 27 31 35 35 38
114 92 88 79 79 74 77 81 89 96 99 63 62 68 65 60 54 48 45 42 40 37 34 32 31 29 30 32 32 31 32 32 29 26 27 28 30 31 31 33 36 38 39 41
79 78 76 76 75 73 75 80 87 92 94 64 65 66 65 60 56 50 46 43 41 41 39 39 37 36 35 34 34 36 36 36 37 40 39 38 37 37 38 39 39 40 43 44
72 70 72 72 73 69 72 70 78 85 80 64 64 64 62 58 55 53 49 47 46 45 44 42 42 42 43 42 42 41 41 41 40 39 42 45 47 47 48 49 49 50 51 52
65 66 66 69 73 70 61 61 68 75 77 77 66 69 70 71 59 55 54 53 53 49 48 48 48 45 44 44 44 45 46 47 48 48 49 50 49 48 49 50 53 54 51 53
60 62 74 67 65 63 59 57 63 73 80 85 66 66 69 72 61 56 54 51 50 50 49 48 47 48 48 49 49 49 49 47 46 45 42 40 37 36 37 38 40 43 44 46
60 70 65 60 61 61 62 64 67 73 80 84 88 69 69 72 70 55 53 52 53 52 53 52 53 53 54 53 49 44 41 41 40 41 42 43 44 46 46 47 48 48 49 50
66 64 65 64 66 67 68 70 71 72 79 84 88 91 71 66 60 58 59 60 58 60 58 56 55 55 52 44 44 43 43 42 44 44 45 46 46 48 49 49 47 46 45 45
61 61 66 73 72 73 74 76 78 79 79 83 87 92 93 92 63 65 70 70 69 68 65 63 59 52 49 49 47 48 48 47 48 49 49 48 47 48 47 45 44 43 41 41
58 66 73 77 81 84 82 81 82 81 82 81 84 91 94 98 98 74 82 74 74 73 69 65 56 53 53 54 54 53 53 54 54 54 54 53 51 48 46 44 44 43 42 41
57 63 70 75 80 83 85 86 84 85 86 88 89 89 94 99 104 99 82 81 77 75 68 60 53 57 56 56 56 56 55 56 56 56 56 54 52 50 47 45 44 42 40 38
Wind_Direction
320 320 322 323 326 329 319 329 330 326 324 330 328 329 324 327 328 321 321 323 322 319 319 319 317 316 317 316 313 310 305 301 278 252 241 242 235 237 244 245 250 252 244 236
321 323 325 325 323 324 327 324 325 327 328 327 330 327 329 329 323 323 323 323 321 320 320 318 319 318 319 323 320 319 315 305 286 258 240 237 233 234 241 233 251 250 253 245
321 318 326 325 321 326 329 326 328 330 328 328 327 329 328 326 325 323 324 324 323 322 321 321 322 319 320 322 319 318 314 309 285 262 244 235 240 241 242 244 221 248 246 241
322 324 319 321 326 321 326 325 328 329 327 328 328 329 325 327 327 326 325 325 324 322 324 323 321 321 319 319 322 321 311 315 288 263 247 231 224 218 225 232 221 244 244 243
320 324 323 319 321 329 329 325 325 330 328 328 329 329 328 332 330 328 326 325 326 324 327 323 323 316 317 322 324 318 313 310 298 268 250 238 228 226 220 225 223 230 237 237
317 319 322 326 319 324 329 326 330 323 329 331 331 328 328 335 332 329 328 328 327 326 325 326 325 315 318 319 325 323 315 309 301 281 251 241 234 227 225 224 225 224 228 236
324 315 324 325 323 328 322 323 324 326 328 326 327 328 331 338 334 331 331 330 328 327 327 327 323 314 315 317 334 332 316 307 304 294 270 245 238 236 233 228 225 227 227 233
315 313 324 321 319 320 321 330 328 327 327 328 328 329 332 338 338 332 332 332 331 329 329 328 331 320 319 324 335 330 328 318 301 292 284 258 244 237 237 236 229 222 225 230
313 318 314 317 316 324 330 330 325 325 332 329 328 330 332 337 338 333 332 333 331 329 329 333 329 325 324 331 340 324 317 318 298 291 277 263 248 239 232 235 230 218 223 224
317 315 314 325 321 321 321 323 328 326 328 327 327 330 331 335 339 333 331 334 331 328 330 332 331 325 325 330 338 333 327 319 310 296 275 269 256 240 239 234 230 225 231 230
317 313 325 323 319 321 321 323 329 326 327 326 328 330 334 343 341 332 333 333 333 331 331 332 328 324 325 335 335 333 330 322 312 305 291 272 258 252 239 236 235 232 232 236
314 318 318 320 326 319 324 328 324 328 329 328 330 333 346 346 342 334 337 337 334 333 333 331 327 323 327 334 333 332 331 330 316 306 298 289 270 261 253 247 240 243 241 236
315 314 318 324 317 323 321 326 329 330 331 332 334 345 348 348 342 338 344 340 337 335 335 334 332 330 332 331 330 329 326 321 319 311 300 289 278 267 262 256 251 247 242 240
313 317 316 319 320 321 323 328 330 333 332 334 340 351 352 350 343 339 346 343 341 339 338 335 334 333 331 330 328 326 320 313 308 309 307 300 282 273 271 267 261 258 253 249
314 315 317 318 320 328 331 332 335 333 334 340 354 353 346 346 346 354 351 347 345 343 341 337 333 332 331 330 328 323 320 317 311 305 305 293 285 285 277 268 267 264 261 258
315 315 324 320 329 328 335 337 334 334 340 345 357 345 349 351 352 358 355 353 351 349 347 343 340 338 334 329 327 322 317 312 308 308 302 296 293 282 279 275 269 266 262 261
315 319 320 328 327 328 340 337 335 340 343 357 357 343 348 356 0 360 359 358 356 355 353 348 342 339 337 334 331 329 325 318 313 308 304 300 287 282 280 284 282 271 269 267
317 325 327 337 336 345 342 339 340 343 343 359 359 346 358 0 2 2 1 1 0 359 356 354 353 348 341 336 333 329 325 322 318 310 306 302 299 294 287 281 278 276 271 267
327 331 337 338 347 346 341 342 342 341 343 3 4 357 359 3 3 4 5 4 2 358 358 356 351 345 341 336 332 328 324 320 316 313 309 304 299 294 291 288 285 280 278 277
332 340 341 347 348 347 344 341 340 341 354 7 5 3 5 6 6 6 6 4 2 360 358 353 349 345 341 335 328 323 317 311 306 300 299 300 300 298 296 294 292 289 287 284
345 344 346 349 350 346 346 345 341 342 353 4 7 5 6 10 8 7 5 4 3 360 357 355 350 342 336 329 323 318 315 312 309 308 305 302 298 294 291 288 286 285 284 282
350 352 344 352 347 349 356 354 347 349 356 7 10 8 9 12 7 7 8 6 2 1 359 352 347 342 338 334 330 325 322 321 320 320 319 317 316 310 306 301 297 295 292 291
2 344 359 356 355 3 5 6 7 359 359 6 13 13 11 10 11 6 6 8 8 4 1 356 351 346 341 336 334 336 341 340 337 333 329 324 320 314 310 306 303 300 295 292
335 6 5 6 7 9 11 12 12 7 4 7 14 18 14 9 8 8 11 11 9 9 4 359 352 347 345 354 353 350 347 346 343 337 333 329 325 321 317 314 308 304 301 297
7 3 8 13 15 15 14 15 16 17 8 7 11 18 19 21 11 14 14 15 11 8 5 0 355 354 1 359 357 357 354 351 347 342 338 334 330 327 322 318 314 311 307 302
5 11 14 14 15 17 19 18 17 17 19 18 10 14 19 21 23 17 18 14 13 10 5 360 357 4 4 2 2 359 356 354 348 346 344 341 335 333 330 325 321 317 313 309
5 8 12 16 18 18 18 22 20 19 19 21 22 14 15 21 23 23 18 16 14 13 6 0 4 7 6 5 3 1 358 355 353 351 348 344 342 340 335 329 324 319 314 308